Flag for Philippines Weather past 2 weeks in Mabalacat, Philippines

Now
75 °F

Passing clouds.


Feels Like: 77 °F
Forecast: 74 / 95 °F
Wind: 6 mph from Northwest

Location: Clarkfield Pampanga International Airport

Current Time: Mar 31, 2015 at 4:12:17 AM

Latest Report: Mar 31, 2015 at 3:00 AM


Visibility: N/A

Pressure: 29.95 "Hg

Humidity: 69%

Dew point: 64 °F

Location of MabalacatLocation

Historic Weather in Mabalacat — Graph

°F

Mabalacat temperature yesterday

Maximum temperature yesterday: 91 °F (at 3:00 PM)
Minimum temperature yesterday: 73 °F (at 5:00 AM)
Average temperature yesterday: 82 °F

Past Weeks' High & Low Weather Summary

 TemperatureHumidityPressure
High93 °F (Mar 20, 3:00 PM)100% (Mar 20, 6:00 AM)30.15 "Hg (Mar 20, 6:00 AM)
Low70 °F (Mar 18, 4:00 AM)30% (Mar 19, 3:00 PM)29.83 "Hg (Mar 18, 3:00 PM)
Average81 °F65%29.97 "Hg
* Reported Mar 16 3:00 AM — Mar 31 3:00 AM, Mabalacat, Weather by CustomWeather, © 2015

Note: Actual official high and low records may vary slightly from our data, if they occured in-between our weather recording intervals... More about our weather records

Advertising

Mabalacat weather history for previous 24 hours

 ConditionsComfort  
Time TempWeatherWind HumidityBarometerVisibility
3:00 AM
Tue, Mar 31
75 °FPassing clouds.6 mph69%29.95 "HgN/A
2:00 AM73 °FPassing clouds.6 mph74%29.95 "HgN/A
1:00 AM75 °FPassing clouds.5 mph69%29.95 "HgN/A
12:00 AM77 °FPassing clouds.2 mph65%29.98 "HgN/A
11:00 PM
Mon, Mar 30
77 °FPassing clouds.6 mph65%29.98 "HgN/A
10:00 PM77 °FPassing clouds.8 mph65%29.98 "HgN/A
9:00 PM79 °FPassing clouds.3 mph61%29.98 "HgN/A
8:00 PM82 °FPassing clouds.7 mph51%29.98 "HgN/A
7:00 PM84 °FPassing clouds.7 mph48%29.95 "HgN/A
6:00 PM88 °FScattered clouds.9 mph40%29.92 "HgN/A
5:00 PM90 °FScattered clouds.8 mph41%29.89 "HgN/A
4:00 PM90 °FPartly sunny.13 mph41%29.89 "HgN/A
3:00 PM91 °FPartly sunny.7 mph36%29.89 "HgN/A
2:00 PM90 °FPartly sunny.7 mph41%29.89 "HgN/A
1:00 PM90 °FScattered clouds.6 mph43%29.92 "HgN/A
12:00 PM88 °FBroken clouds.5 mph46%29.95 "HgN/A
11:00 AM88 °FBroken clouds.5 mph46%29.98 "HgN/A
10:00 AM84 °FBroken clouds.5 mph55%30.01 "HgN/A
9:00 AM82 °FPartly sunny.8 mph58%30.01 "HgN/A
8:00 AM81 °FPartly sunny.7 mph66%30.01 "HgN/A
7:00 AM77 °FPartly sunny.3 mph69%29.98 "HgN/A
6:00 AM75 °FPartly sunny.3 mph74%29.95 "HgN/A
5:00 AM73 °FPassing clouds.5 mph83%29.92 "HgN/A
4:00 AM75 °FPassing clouds.3 mph78%29.92 "HgN/A
Weather by CustomWeather, © 2015

See weather overviewHow to use our weather pages